User: anonymous   Login
Location: Caltech
(34.1382°N, 118.1253°W)
Time: 00:20:48
(UTC-07:00)
Language:

NOAA 19 - Orbit

View from above orbital plane
View from above orbital plane
View from above satellite
View from above satellite

Ground track
Ground track

The orbit data is extracted from the following two-line orbital elements,

1 33591U 09005A   16242.49463186  .00000084  00000-0  70620-4 0  9992
2 33591  99.0470 199.8947 0014415  16.9414 343.2235 14.12101063389482
Epoch (UTC): 29 August 2016 11:52:16
Eccentricity: 0.0014415
inclination: 99.0470°
perigee height: 842 km
apogee height: 862 km
right ascension of ascending node: 199.8947°
argument of perigee: 16.9414°
revolutions per day: 14.12101063
mean anomaly at epoch: 343.2235°
orbit number at epoch: 38948

The dashed part of the orbit path shows where the satellite is in the earth's shadow,  

DLR